Location: Alvediston
(51.0078°N, 2.0364°W)
Time: 16:33:45
(UTC+00:00)

STARLINK-1052 - Pass Details

Date: 27 February 2020
Orbit: 549 x 550 km, 53.0° (Epoch: 07 April)

Event Time Altitude Azimuth Distance (km) Brightness Sun altitude
Rises 19:39:15 0° 265° (W) 2,717 8.6 -18.7°
Reaches altitude 10° 19:41:29 10° 268° (W) 1,825 7.4 -19.1°
Maximum altitude 19:45:37 69° 351° (N) 591 3.7 -19.7°
Enters shadow 19:46:40 47° 57° (ENE) 734 3.9 -19.9°
